Location: Go?cza
(50.3372°N, 19.9313°E)
Time: 23:08:53
(UTC+00:00)

Okean 2 - Pass Details

Date: 23 May 2024
Orbit: 541 x 552 km, 82.5° (Epoch: 22 June)

Event Time Altitude Azimuth Distance (km) Brightness Sun altitude
Exits shadow 00:51:04 19° 236° (SW) 1,325 4.7 -13.1°
Maximum altitude 00:53:15 33° 288° (WNW) 938 4.4 -12.9°
Drops below altitude 10° 00:56:53 10° 353° (N) 1,818 6.7 -12.6°
Sets 00:59:13 0° 3° (N) 2,716 8.0 -12.4°
